Regional Weather Roundup
Issued by NWS Pendleton, OR

Home | Current Version | Previous Version | Text Only | Print | Product List | Glossary On
Versions: 1 2 3 4 5 6 7 8 9 10 11 12 13 14 15 16 17 18 19 20 21 22 23 24 25 26 27 28 29 30 31 32 33 34 35 36 37 38 39 40 41 42 43 44 45 46 47 48 49 50
245
ASUS46 KPDT 240425
RWRPDT
PENDLETON REGIONAL WEATHER ROUNDUP
NATIONAL WEATHER SERVICE PENDLETON OREGON
900 PM PDT WED AUG 23 2017

NOTE: FAIR INDICATES FEW OR NO CLOUDS BELOW 12,000 FEET WITH NO
SIGNIFICANT WEATHER AND/OR OBSTRUCTIONS TO VISIBILITY.

# INDICATES UNOFFICIAL STATION AND DATA

WAZ520-240510-
EAST SLOPES OF WASHINGTON CASCADES

CITY            SKY/WX      TMP DP  RH  WIND    PRES   REMARKS
#BULLFROG       N/A         70  51  51  W6      N/A
#CLE ELUM HS    N/A         68  51  55  SW7     29.89R
#CLE ELUM LAKE  N/A         65  50  58  CALM    29.99R
#ELK HTS DOT    N/A         69  69  100 W6      N/A
#GLENWOOD       N/A         69  60  73  SW2     29.82R
#NELSON 3SW     N/A         65  50  58  CALM    30.01R
#NILE           N/A         71  54  55  SW2     29.11R
#TEANAWAY 4NE   N/A         70  54  57  NW3     N/A
#TROUT LAKE 1NE N/A         69  58  68  W1      29.84R
#TROUT LAKE 1E  N/A         69  57  66  CALM    29.95S
$$

WAZ521-240510-
SIMCOE HIGHLANDS

CITY            SKY/WX      TMP DP  RH  WIND    PRES   REMARKS
#BICKLETON HS   N/A         69  55  61  W6      29.88S
#CENTERVILLE 1SWN/A         71  57  61  W12     29.78R
#GOLDENDALE 1NE N/A         73  42  33  SW2     N/A
#GOLDENDALE 4W  N/A         73  26  17  W10     29.94R
#GOODNOE HILLS  N/A         75  58  56  NW15    N/A
#LYLE 6NE       N/A         71  59  66  SW8     29.85R
#PITT 4SE       N/A         67  57  70  SW8     29.85R
$$

WAZ026-240510-
KITTITAS VALLEY

CITY            SKY/WX      TMP DP  RH  WIND    PRES   REMARKS
ELLENSBURG AP   MOCLDY      73  52  48  NW21G28 29.88R
#ELLENSBURG CWU N/A         73  54  51  N7      29.73R
#ELLENSBURG 3NE N/A         71  53  53  NW9     27.96R
#ELLENSBURG 1E  N/A         74  52  46  N2      29.82R
#KITTITAS 3S    N/A         76  41  28  NW9     29.75R
#MANASTASH RDG  N/A         71  71  100 NW8     N/A
#ROCKY CYN DOT  N/A         72  53  51  NW18    N/A
#RYEGRASS DOT   N/A         72  49  44  S22G29  N/A
$$

WAZ027-240510-
YAKIMA VALLEY

CITY            SKY/WX      TMP DP  RH  WIND    PRES   REMARKS
SUNNYSIDE AP    N/A         65  58  78  N3      29.82R
YAKIMA AIRPORT  MOCLDY      80  57  45  E3      29.84R
YAKIMA-VAGABOND MOCLDY      79  53  41  W10     29.83R
#DONALD 2NE     N/A         78  21  12  NW6     28.69R
#GRANDVIEW      N/A         73  55  53  CALM    29.80R
#MABTON         N/A         73  63  71  CALM    29.81R
#MOXEE 2E       N/A         70  N/A N/A CALM    29.79R
#NACHES 2SW     N/A         74  56  53  W10     29.88R
#OUTLOOK DOT    N/A         72  58  61  CALM    29.79R
#PARKER DOT     N/A         77  53  43  S6      29.82R
#TERRACE HTS    N/A         77  56  48  N1      29.74R
#TOPPENISH      N/A         76  61  60  CALM    29.71R
#I82 S UMTANUM RN/A         75  47  37  NE3     N/A
#UNION GAP DOT  N/A         76  57  52  VRB1    N/A
#W YAKIMA       N/A         76  58  54  NW3     29.78R
#WHITE SWAN 5E  N/A         72  61  68  CALM    29.79R
#WILEY CITY 3W  N/A         74  52  46  CALM    29.83R
#ZILLAH DOT     N/A         74  57  55  NE3     N/A
$$

WAZ028-240510-
LOWER COLUMBIA BASIN...WASHINGTON

CITY            SKY/WX      TMP DP  RH  WIND    PRES   REMARKS
PASCO           MOCLDY      73  61  66  NE3     29.81R SMOKE
PROSSER AWOS    N/A         73  57  57  CALM    29.85R
RICHLAND AWOS   MOCLDY      73  62  68  CALM    29.80R
#BENTON CITY    N/A         74  54  50  CALM    29.68R
#CONNELL 5N     N/A         72  55  55  E1      29.78S
#CONNELL 5NW    N/A         71  57  61  SE1     29.74R
#ELTOPIA 6NW    N/A         74  59  59  CALM    28.81R
#KAHLOTUS       N/A         77  52  42  CALM    29.78R
#KENNEWICK 3S   N/A         79  52  39  SW5     29.78R
#PATERSON       N/A         78  59  52  CALM    29.77R
#PROSSER DOT    N/A         82  50  33  CALM    29.82R
#SAGEMOOR 2W    N/A         74  59  59  CALM    29.65R
#TOUCHET 2S     N/A         77  54  45  E1      29.76R
#WEST PASCO     N/A         73  58  59  CALM    29.77R
$$

WAZ029-240510-
FOOTHILLS OF THE BLUES...WASHINGTON

CITY            SKY/WX      TMP DP  RH  WIND    PRES   REMARKS
WALLA WALLA AP  CLOUDY      80  51  36  SE5     29.86R
#CLYDE 6NW      N/A         78  51  39  S6      29.77R
#DAYTON SCHOOL  N/A         72  46  39  N1      29.89R
#DELANEY DOT    N/A         72  50  46  CALM    29.86R
#LOWDEN 2SE     N/A         77  58  52  E1      29.79R
#PLEASANT VIEW 1N/A         74  49  41  S3      29.81R
#PRESCOTT       N/A         70  60  71  CALM    29.79R
#WHITMAN COLLEGEN/A         79  54  42  CALM    29.84R
#WAITSBURG 5S   N/A         74  49  41  CALM    29.88R
#WAITSBURG 6SSE N/A         73  51  46  E3      29.83R
#WAITSBURG 8N   N/A         93  N/A N/A CALM    29.85R
#WALLA WALLA 5E N/A         75  52  45  CALM    N/A
#WALLA WALLA U  N/A         78  57  48  CALM    29.79R
#WHITMAN MISSIONN/A         74  62  66  CALM    29.80R
$$

WAZ030-240510-
BLUE MOUNTAINS...WASHINGTON

CITY            SKY/WX      TMP DP  RH  WIND    PRES   REMARKS
#DIXIE 5SE      N/A         75  48  38  S5      29.89R
$$

ORZ009-041-WAZ024-240510-
COLUMBIA RIVER GORGE

CITY            SKY/WX      TMP DP  RH  WIND    PRES   REMARKS
HOOD RIVER AP   PTCLDY      73  59  62  W5      29.90R
THE DALLES AP   PTCLDY      79  60  52  NW15    29.84R
#CELILO DOT     N/A         81  59  47  SW10    N/A
#LYLE           N/A         77  62  60  W7      29.85R
#MARYHILL       N/A         77  57  50  N18     29.72R
#MURDOCK        N/A         78  61  56  NW13    29.80R
#RUFUS DOT      N/A         82  N/A N/A W16     N/A
#SMITHVILLE     N/A         77  60  56  N12     29.83R

$$

ORZ510-240510-
NORTH CENTRAL OREGON

CITY            SKY/WX      TMP DP  RH  WIND    PRES   REMARKS
#ANTELOPE       N/A         74  53  48  CALM    29.67R
#COW CYN RST AREN/A         73  51  46  NW6     N/A
#DUFUR          N/A         70  54  57  CALM    29.81R
#DUFUR 9E       N/A         71  52  51  W7      29.88R
#GRASS VALLEY 1SN/A         72  51  48  NW3     29.97R
#KENT DOT       N/A         72  46  39  N3      N/A
#MAUPIN SCHOOL  N/A         80  55  42  W2      29.93R
#SHANIKO 5WSW   N/A         72  46  39  N8      N/A
#TYGH VALLEY 2NEN/A         78  52  40  N7      29.82R
#WAPANITIA AIRPON/A         73  51  46  W7      29.83R
#WASCO 5NE      N/A         74  58  57  W8      29.80R
$$

ORZ511-240510-
CENTRAL OREGON

CITY            SKY/WX      TMP DP  RH  WIND    PRES   REMARKS
BEND AIRPORT    PTCLDY      70  54  57  NW6     30.02R
MADRAS AIRPORT  N/A         68  52  57  MISG    N/A
PRINEVILLE AP   MOCLDY      72  50  46  NW7     30.00R HAZE
REDMOND AIRPORT PTCLDY      75  49  40  NW9     29.99R HAZE
#ASHWOOD SCHOOL N/A         74  48  40  CALM    29.92R
#BEND 1SW       N/A         68  49  51  CALM    N/A
#BEND-AWBREY    N/A         70  55  59  NE2     29.82R
#BEND-KIM LN    N/A         70  54  57  CALM    29.78R
#CULVER         N/A         75  49  40  CALM    29.74R
#CULVER 8W      N/A         72  48  43  CALM    29.98R
#LAKE BILLY CHINN/A         75  N/A N/A W3      30.00R
#MADRAS 4S      N/A         73  19  13  N6      N/A
#POWELL BUTTE   N/A         74  53  48  W3      29.97R
#PRINEVILLE     N/A         74  51  44  N1      29.89R
#PRINEVILLE 3N  N/A         72  55  55  NW5     29.89R
#WARM SPRINGS   N/A         77  55  47  CALM    29.74R

$$


ORZ509-240510-
EAST SLOPES OF OREGON CASCADES

CITY            SKY/WX      TMP DP  RH  WIND    PRES   REMARKS
SISTERS AWOS    N/A         70  55  59  W13     29.97R
#BLUE BOX PASS  N/A         60  N/A N/A NW3     N/A
#CAMP SHERMAN   N/A         68  54  61  CALM    29.96R
#LA PINE 4NW    N/A         66  51  58  CALM    29.87R
#LAVA BUTTE DOT N/A         67  45  45  CALM    N/A
#SISTERS ODOT   N/A         72  53  51  W6      N/A
#SISTERS 3N     N/A         68  53  59  N2      29.93S
#SUNRIVER       N/A         66  51  58  CALM    29.97R
#TUMALO 3W      N/A         68  54  61  N1      29.70R
#WANOGA BUTTE D N/A         62  44  52  W6      N/A

$$

ORZ044-240510-
LOWER COLUMBIA BASIN...OREGON

CITY            SKY/WX      TMP DP  RH  WIND    PRES   REMARKS
HERMISTON       MOCLDY      78  56  47  S9      29.82R HAZE
#BOARDMAN SCHOOLN/A         78  54  43  SW3     29.79R
#BOARDMAN 8SW   N/A         76  58  54  SW7     29.80R
#ECHO 8SW       N/A         78  56  47  SW1     29.84R
#I-84 EX 198 DOTN/A         79  57  47  NE8     N/A
#IONE SCHOOL    N/A         80  48  33  SW2     29.81R
#UMATILLA       N/A         76  59  56  CALM    29.72R
$$

ORZ507-240510-
NORTHERN FOOTHILLS OF THE BLUES

CITY            SKY/WX      TMP DP  RH  WIND    PRES   REMARKS
PENDLETON AIRPT LGT RAIN    78  55  45  SW7     29.88R
#ADAMS 3WNW     N/A         76  50  40  CALM    29.81R
#ATHENA         N/A         76  52  43  CALM    29.83R
#CAYUSE         N/A         78  51  39  CALM    29.80R
#HELIX SCHOOL   N/A         75  49  40  S1      29.81R
#HELIX 3N       N/A         76  48  37  S7      29.88R
#HOLDMAN 5SE    N/A         77  52  42  CALM    29.87R
#HOLDMAN 6E     N/A         75  52  45  SE2     29.61R
#M-F GROVE ELEM N/A         76  51  42  CALM    29.84R
#M-FREEWATER 5SEN/A         72  56  57  CALM    29.87R
#PENDLETON DNTN N/A         77  50  39  CALM    29.86R
#PDT AQUATIC CTRN/A         75  53  46  CALM    29.87S
#PDT SUNRIDGE   N/A         78  56  47  S1      29.88R
#PENDLETON 7NW  N/A         77  58  52  CALM    29.31F
#PILOT ROCK 1S  N/A         73  56  55  SE5     29.92R
#PILOT ROCK     N/A         71  56  59  CALM    29.94R
#TUTUILLA       N/A         73  57  57  CALM    29.93R
#UMAPINE 2E     N/A         73  58  59  CALM    29.81R
#WESTON SCHOOL  N/A         75  48  38  W1      29.82R

$$

ORZ508-240510-
SOUTHERN FOOTHILLS OF THE BLUES

CITY            SKY/WX      TMP DP  RH  WIND    PRES   REMARKS
LEXINGTON       CLOUDY      79  46  31  CALM    29.93R
#AJAX           N/A         74  46  37  S10     30.09R
#HEPPNER EOC    N/A         74  55  51  SE5     29.76R
#HEPPNER 4NE    N/A         74  49  41  CALM    29.82R
#LEXINGTON 2SE  N/A         76  54  46  CALM    29.87R
#MIKKALO        N/A         77  48  36  W8      30.02R
#OLEX 4N        N/A         78  52  40  W10     29.85R
#RUGGS 5NE      N/A         73  46  38  W1      30.11F
#RUGGS 2SW      N/A         73  49  43  W2      29.83R

$$

ORZ502-503-240510-
BLUE MOUNTAINS

CITY            SKY/WX      TMP DP  RH  WIND    PRES   REMARKS
MEACHAM         CLOUDY      70  41  35  CALM    30.02R
#BATTLE MTN DOT N/A         64  53  67  CALM    N/A
#GRANITE        N/A         65  50  58  CALM    29.95R
#HEPPNER 15SE   N/A         65  50  58  S2      29.90R
#LADD CYN SMT   N/A         71  48  44  CALM    N/A
#LADD CREEK ODOTN/A         73  53  49  SW2     N/A
#N POWDER DOT   N/A         72  51  48  NW6     N/A
#PIKES PEAK     N/A         75  44  33  N9      27.99S
#SUMMERVILLE 5NWN/A         72  46  39  CALM    29.98R
#TOLLGATE       N/A         64  45  50  CALM    29.94R
#TROY SCHOOL    N/A         73  54  51  CALM    29.66R
#UKIAH          N/A         67  57  70  CALM    29.76R
#WESTON 4E      N/A         73  49  43  CALM    29.78R
$$

ORZ505-240510-
JOHN DAY BASIN

CITY            SKY/WX      TMP DP  RH  WIND    PRES   REMARKS
JOHN DAY        PTCLDY      72  55  55  W9      30.06R
#ANTELOPE 9ESE  N/A         81  51  35  CALM    N/A
#DAYVILLE SCHOOLN/A         70  59  68  S6      29.95R
#MITCHELL       N/A         67  62  84  CALM    30.16R
#MITCHELL 8NW   N/A         75  48  38  CALM    29.86R
#MONUMENT HS    N/A         75  56  52  CALM    29.88R
#MT. VERNON 5SE N/A         68  54  61  S5      30.02R
#SPRAY SCHOOL   N/A         75  N/A N/A CALM    N/A
$$

ORZ506-240510-
OCHOCO AND JOHN DAY HIGHLANDS

CITY            SKY/WX      TMP DP  RH  WIND    PRES   REMARKS
#HORSE RIDGE DO N/A         74  38  27  NW7     N/A
#PAULINA ODOT   N/A         69  53  57  NE6     N/A
#PINE MTN OBS   N/A         64  41  43  N2      N/A
#PRAIRIE CITY   N/A         70  54  57  CALM    30.15R
#SENECA         N/A         61  N/A N/A N5      N/A
#SENECA 9NW     N/A         60  56  87  CALM    29.82R
$$

ORZ049-240510-
GRANDE RONDE VALLEY

CITY            SKY/WX      TMP DP  RH  WIND    PRES   REMARKS
#COVE           N/A         72  55  55  CALM    29.98R
#COVE SCHOOL    N/A         72  51  48  CALM    29.96S
#COVE 6NW       N/A         73  50  44  NW3     29.78R
#ELGIN 3N       N/A         70  45  41  CALM    29.93R
#ELGIN 1E       N/A         74  47  38  CALM    N/A
#IMBLER SCHOOL  N/A         73  46  38  CALM    29.91R
#ISLAND CITY 4N N/A         70  55  59  N2      29.96R
#LA GRANDE-LEFFEN/A         78  45  31  NW5     29.96R
#UNION 1S       N/A         75  53  46  CALM    29.78R
$$

ORZ050-240510-
WALLOWA COUNTY

CITY            SKY/WX      TMP DP  RH  WIND    PRES   REMARKS
#ENTERPRISE HS  N/A         63  50  62  CALM    29.72R
#IMNAHA SCHOOL  N/A         77  46  33  CALM    29.89R
#JOSEPH         N/A         66  49  54  CALM    30.01R
#JOSEPH 3N      N/A         58  46  64  CALM    30.05R
#JOSEPH 3W      N/A         65  48  54  SW3     29.91S
#LOSTINE        N/A         68  49  51  CALM    29.63R
#LOSTINE 3SE    N/A         68  46  45  W2      30.05R
#MT HOWARD 8000 N/A         58  35  42  CALM    30.32R
#PROMISE 1S     N/A         66  48  52  CALM    29.93R
#WALLOWA LAKE   N/A         64  47  54  S1      30.08R
#WALLOWA SCHOOL N/A         68  55  63  CALM    29.93R



$$



USA.gov is the U.S. government's official web portal to all federal, state and local government web resources and services.